QPF
0.01 0.02 0.04 0.02 0.01 0.01 0.01 0.01 0.00 0.00 0.00 0.00 0.00 0.01 0.01 0.00 0.00 0.00 0.00 0.00 0.00 0.00 0.00 0.00 0.01 0.01 0.02 0.03 0.04 0.05 0.06 0.06 0.08 0.10 0.09 0.09 0.11 0.14 0.12 0.09 0.09 0.08 0.07 0.05
0.01 0.02 0.02 0.02 0.01 0.01 0.01 0.01 0.01 0.00 0.00 0.00 0.01 0.01 0.00 0.00 0.01 0.01 0.00 0.00 0.01 0.01 0.00 0.00 0.01 0.02 0.02 0.03 0.03 0.04 0.06 0.05 0.04 0.06 0.08 0.07 0.09 0.13 0.14 0.10 0.10 0.09 0.07 0.05
0.00 0.01 0.01 0.03 0.02 0.01 0.01 0.01 0.01 0.01 0.01 0.00 0.01 0.01 0.00 0.00 0.00 0.01 0.01 0.00 0.01 0.01 0.01 0.01 0.01 0.02 0.03 0.03 0.03 0.04 0.04 0.04 0.04 0.04 0.07 0.07 0.08 0.10 0.15 0.14 0.11 0.10 0.07 0.06
0.01 0.01 0.01 0.02 0.03 0.01 0.01 0.01 0.00 0.01 0.01 0.01 0.02 0.03 0.01 0.01 0.00 0.00 0.00 0.00 0.00 0.01 0.01 0.02 0.02 0.02 0.03 0.04 0.06 0.06 0.05 0.05 0.05 0.04 0.07 0.07 0.07 0.09 0.14 0.16 0.14 0.11 0.10 0.08
0.01 0.01 0.01 0.01 0.02 0.01 0.01 0.00 0.00 0.01 0.01 0.02 0.02 0.03 0.02 0.01 0.01 0.00 0.00 0.00 0.00 0.01 0.02 0.03 0.04 0.04 0.05 0.05 0.08 0.09 0.08 0.07 0.08 0.06 0.06 0.08 0.08 0.09 0.11 0.16 0.16 0.11 0.10 0.08
0.01 0.01 0.01 0.01 0.01 0.01 0.01 0.01 0.01 0.01 0.02 0.03 0.01 0.02 0.02 0.01 0.01 0.01 0.00 0.00 0.01 0.01 0.03 0.04 0.06 0.06 0.07 0.07 0.08 0.08 0.09 0.10 0.12 0.09 0.06 0.09 0.10 0.09 0.08 0.12 0.16 0.15 0.10 0.08
0.00 0.01 0.01 0.01 0.01 0.01 0.01 0.02 0.02 0.02 0.03 0.02 0.01 0.01 0.02 0.01 0.01 0.01 0.01 0.01 0.01 0.02 0.04 0.06 0.07 0.08 0.09 0.09 0.08 0.09 0.10 0.10 0.10 0.10 0.09 0.11 0.12 0.11 0.09 0.09 0.11 0.15 0.13 0.09
0.00 0.00 0.01 0.00 0.01 0.02 0.02 0.02 0.03 0.03 0.02 0.01 0.01 0.02 0.02 0.01 0.01 0.01 0.01 0.02 0.02 0.03 0.05 0.08 0.08 0.09 0.10 0.11 0.10 0.11 0.12 0.12 0.12 0.12 0.13 0.14 0.12 0.11 0.10 0.09 0.08 0.10 0.11 0.09
0.00 0.00 0.00 0.00 0.00 0.01 0.02 0.03 0.02 0.03 0.02 0.01 0.02 0.02 0.01 0.01 0.01 0.02 0.02 0.03 0.03 0.05 0.06 0.08 0.10 0.12 0.12 0.12 0.11 0.10 0.11 0.11 0.11 0.12 0.13 0.14 0.12 0.10 0.09 0.09 0.08 0.08 0.07 0.07
0.01 0.01 0.00 0.00 0.00 0.00 0.01 0.02 0.02 0.03 0.03 0.02 0.02 0.02 0.02 0.02 0.03 0.04 0.05 0.05 0.06 0.08 0.08 0.08 0.08 0.12 0.13 0.13 0.10 0.09 0.10 0.09 0.10 0.11 0.12 0.13 0.13 0.10 0.08 0.09 0.09 0.07 0.05 0.05
0.00 0.01 0.00 0.00 0.00 0.00 0.00 0.01 0.01 0.02 0.02 0.02 0.02 0.03 0.03 0.03 0.05 0.07 0.08 0.06 0.06 0.09 0.10 0.09 0.07 0.08 0.10 0.11 0.11 0.09 0.08 0.08 0.09 0.10 0.10 0.10 0.10 0.10 0.08 0.07 0.08 0.07 0.05 0.05
0.01 0.01 0.01 0.00 0.00 0.00 0.00 0.01 0.01 0.02 0.01 0.01 0.02 0.03 0.03 0.03 0.05 0.06 0.07 0.06 0.06 0.09 0.10 0.10 0.07 0.06 0.06 0.09 0.09 0.08 0.07 0.06 0.07 0.07 0.07 0.07 0.07 0.08 0.07 0.07 0.08 0.07 0.05 0.05
0.02 0.02 0.02 0.01 0.01 0.00 0.00 0.00 0.00 0.01 0.01 0.01 0.02 0.03 0.02 0.03 0.03 0.04 0.05 0.05 0.05 0.08 0.10 0.10 0.10 0.06 0.06 0.07 0.07 0.06 0.06 0.06 0.05 0.06 0.05 0.05 0.06 0.07 0.06 0.05 0.06 0.07 0.05 0.04
0.02 0.03 0.02 0.01 0.01 0.01 0.01 0.00 0.00 0.01 0.02 0.01 0.01 0.01 0.01 0.02 0.02 0.03 0.05 0.05 0.07 0.08 0.08 0.10 0.10 0.09 0.07 0.07 0.07 0.05 0.05 0.05 0.04 0.04 0.05 0.06 0.06 0.07 0.07 0.05 0.04 0.05 0.04 0.04
0.02 0.02 0.01 0.00 0.00 0.01 0.01 0.00 0.00 0.01 0.01 0.01 0.01 0.01 0.01 0.02 0.03 0.04 0.05 0.06 0.07 0.07 0.07 0.09 0.09 0.09 0.09 0.08 0.07 0.06 0.04 0.04 0.04 0.03 0.03 0.05 0.06 0.07 0.07 0.07 0.06 0.05 0.04 0.04
0.01 0.01 0.01 0.01 0.01 0.01 0.01 0.00 0.00 0.00 0.00 0.00 0.00 0.01 0.01 0.02 0.03 0.04 0.04 0.05 0.06 0.06 0.06 0.07 0.07 0.07 0.08 0.08 0.08 0.06 0.04 0.04 0.03 0.03 0.02 0.03 0.04 0.05 0.05 0.06 0.06 0.06 0.05 0.05
0.01 0.01 0.01 0.01 0.00 0.01 0.01 0.01 0.01 0.00 0.00 0.00 0.01 0.01 0.01 0.02 0.03 0.04 0.04 0.04 0.06 0.06 0.05 0.05 0.05 0.05 0.06 0.07 0.07 0.06 0.04 0.04 0.04 0.03 0.03 0.03 0.03 0.03 0.03 0.04 0.05 0.05 0.06 0.06
0.01 0.01 0.02 0.01 0.01 0.01 0.01 0.01 0.01 0.01 0.00 0.00 0.01 0.01 0.01 0.02 0.03 0.04 0.05 0.06 0.06 0.06 0.05 0.04 0.04 0.04 0.04 0.05 0.07 0.07 0.05 0.04 0.04 0.03 0.04 0.03 0.03 0.03 0.02 0.03 0.04 0.04 0.05 0.05
0.01 0.02 0.03 0.02 0.02 0.01 0.01 0.00 0.00 0.01 0.01 0.01 0.01 0.01 0.01 0.01 0.02 0.03 0.04 0.05 0.05 0.04 0.04 0.03 0.03 0.04 0.04 0.04 0.06 0.08 0.07 0.05 0.04 0.03 0.04 0.04 0.03 0.03 0.02 0.02 0.03 0.04 0.04 0.04
0.01 0.03 0.04 0.03 0.02 0.01 0.01 0.01 0.00 0.01 0.01 0.01 0.01 0.01 0.01 0.01 0.02 0.02 0.02 0.03 0.02 0.02 0.02 0.02 0.02 0.03 0.03 0.04 0.05 0.06 0.08 0.07 0.05 0.05 0.04 0.04 0.04 0.03 0.03 0.02 0.03 0.03 0.03 0.03
0.01 0.03 0.04 0.03 0.02 0.01 0.00 0.00 0.01 0.01 0.01 0.01 0.01 0.01 0.01 0.01 0.02 0.02 0.02 0.02 0.02 0.02 0.02 0.02 0.02 0.02 0.04 0.05 0.05 0.05 0.06 0.07 0.07 0.07 0.05 0.04 0.04 0.04 0.03 0.03 0.03 0.03 0.03 0.03
0.01 0.02 0.02 0.02 0.03 0.01 0.00 0.00 0.01 0.01 0.01 0.01 0.01 0.01 0.01 0.02 0.02 0.02 0.02 0.01 0.01 0.01 0.02 0.02 0.02 0.02 0.04 0.05 0.05 0.05 0.05 0.06 0.07 0.07 0.06 0.05 0.04 0.04 0.03 0.03 0.03 0.03 0.03 0.03
0.01 0.01 0.02 0.02 0.01 0.01 0.00 0.01 0.01 0.01 0.01 0.00 0.00 0.00 0.01 0.01 0.01 0.01 0.02 0.02 0.01 0.01 0.02 0.02 0.02 0.03 0.04 0.05 0.05 0.06 0.06 0.06 0.06 0.05 0.05 0.04 0.04 0.03 0.03 0.03 0.03 0.03 0.03 0.03
0.00 0.00 0.01 0.01 0.00 0.00 0.00 0.00 0.00 0.00 0.00 0.00 0.00 0.00 0.01 0.01 0.01 0.02 0.02 0.02 0.02 0.01 0.02 0.02 0.02 0.03 0.04 0.05 0.05 0.06 0.06 0.05 0.05 0.05 0.04 0.04 0.04 0.03 0.03 0.03 0.03 0.03 0.03 0.03
0.00 0.01 0.01 0.01 0.00 0.00 0.00 0.00 0.00 0.00 0.00 0.00 0.00 0.00 0.00 0.01 0.01 0.02 0.02 0.02 0.03 0.02 0.02 0.02 0.03 0.03 0.04 0.04 0.05 0.05 0.05 0.05 0.04 0.04 0.03 0.03 0.03 0.03 0.02 0.02 0.03 0.03 0.03 0.03
0.00 0.01 0.01 0.01 0.00 0.01 0.00 0.00 0.00 0.00 0.00 0.00 0.00 0.00 0.00 0.01 0.01 0.02 0.02 0.02 0.03 0.03 0.02 0.02 0.02 0.03 0.03 0.03 0.04 0.04 0.05 0.05 0.04 0.03 0.03 0.03 0.03 0.03 0.02 0.02 0.02 0.03 0.03 0.03
MSLP
1013.38 1013.36 1013.26 1013.13 1013.02 1012.96 1012.95 1012.96 1012.94 1012.80 1012.49 1011.98 1011.26 1010.39 1009.46 1008.58 1007.87 1007.43 1007.31 1007.51 1007.98 1008.66 1009.43 1010.19 1010.86 1011.38 1011.75 1011.96 1012.07 1012.12 1012.15 1012.18 1012.24 1012.32 1012.40 1012.46 1012.48 1012.45 1012.37 1012.26 1012.12 1011.97 1011.83 1011.71
1013.08 1012.99 1012.84 1012.71 1012.65 1012.68 1012.79 1012.93 1013.01 1012.95 1012.67 1012.12 1011.32 1010.31 1009.22 1008.18 1007.31 1006.75 1006.55 1006.71 1007.20 1007.93 1008.78 1009.63 1010.38 1010.98 1011.40 1011.66 1011.81 1011.89 1011.95 1012.04 1012.15 1012.29 1012.44 1012.55 1012.62 1012.62 1012.56 1012.44 1012.30 1012.15 1012.00 1011.88
1012.72 1012.55 1012.38 1012.27 1012.28 1012.42 1012.67 1012.95 1013.15 1013.17 1012.92 1012.33 1011.43 1010.28 1009.01 1007.78 1006.75 1006.05 1005.76 1005.88 1006.37 1007.14 1008.05 1008.98 1009.82 1010.49 1010.97 1011.28 1011.47 1011.59 1011.69 1011.83 1012.00 1012.20 1012.40 1012.57 1012.69 1012.73 1012.69 1012.59 1012.46 1012.31 1012.18 1012.06
1012.30 1012.09 1011.91 1011.85 1011.95 1012.21 1012.61 1013.03 1013.36 1013.45 1013.20 1012.57 1011.56 1010.26 1008.81 1007.40 1006.20 1005.35 1004.96 1005.03 1005.51 1006.31 1007.28 1008.28 1009.19 1009.93 1010.48 1010.85 1011.08 1011.25 1011.40 1011.58 1011.80 1012.05 1012.31 1012.54 1012.70 1012.78 1012.77 1012.69 1012.58 1012.45 1012.32 1012.23
1011.87 1011.63 1011.47 1011.47 1011.68 1012.08 1012.62 1013.18 1013.60 1013.75 1013.50 1012.81 1011.69 1010.24 1008.62 1007.03 1005.66 1004.68 1004.19 1004.19 1004.66 1005.47 1006.48 1007.54 1008.52 1009.33 1009.95 1010.38 1010.67 1010.89 1011.09 1011.32 1011.60 1011.90 1012.21 1012.48 1012.68 1012.79 1012.82 1012.76 1012.66 1012.54 1012.43 1012.34
1011.42 1011.19 1011.08 1011.16 1011.48 1012.02 1012.68 1013.35 1013.85 1014.02 1013.75 1012.99 1011.77 1010.19 1008.42 1006.67 1005.17 1004.07 1003.47 1003.42 1003.85 1004.65 1005.69 1006.79 1007.83 1008.71 1009.39 1009.90 1010.26 1010.54 1010.80 1011.09 1011.41 1011.76 1012.11 1012.42 1012.65 1012.79 1012.83 1012.79 1012.69 1012.58 1012.47 1012.38
1010.96 1010.77 1010.73 1010.91 1011.35 1011.99 1012.76 1013.50 1014.03 1014.21 1013.91 1013.08 1011.77 1010.08 1008.20 1006.35 1004.73 1003.54 1002.87 1002.75 1003.13 1003.91 1004.95 1006.07 1007.14 1008.07 1008.82 1009.40 1009.83 1010.19 1010.52 1010.87 1011.24 1011.64 1012.02 1012.36 1012.61 1012.76 1012.81 1012.77 1012.67 1012.55 1012.43 1012.33
1010.47 1010.35 1010.41 1010.70 1011.23 1011.96 1012.79 1013.55 1014.09 1014.24 1013.89 1013.01 1011.64 1009.89 1007.95 1006.04 1004.37 1003.12 1002.39 1002.21 1002.55 1003.28 1004.28 1005.39 1006.47 1007.43 1008.23 1008.87 1009.38 1009.81 1010.22 1010.63 1011.06 1011.50 1011.91 1012.26 1012.53 1012.68 1012.72 1012.67 1012.56 1012.43 1012.29 1012.18
1009.95 1009.94 1010.10 1010.49 1011.10 1011.87 1012.71 1013.45 1013.94 1014.04 1013.64 1012.72 1011.32 1009.56 1007.63 1005.73 1004.07 1002.81 1002.06 1001.84 1002.11 1002.78 1003.71 1004.77 1005.82 1006.78 1007.61 1008.30 1008.87 1009.38 1009.86 1010.34 1010.82 1011.30 1011.73 1012.10 1012.36 1012.51 1012.54 1012.48 1012.36 1012.20 1012.05 1011.92
1009.43 1009.53 1009.79 1010.25 1010.90 1011.67 1012.46 1013.13 1013.54 1013.55 1013.09 1012.15 1010.77 1009.07 1007.22 1005.40 1003.82 1002.61 1001.87 1001.62 1001.83 1002.41 1003.25 1004.22 1005.20 1006.12 1006.95 1007.66 1008.29 1008.86 1009.41 1009.95 1010.48 1010.99 1011.44 1011.82 1012.08 1012.22 1012.24 1012.17 1012.03 1011.87 1011.70 1011.55
1008.94 1009.14 1009.48 1009.98 1010.61 1011.32 1012.00 1012.55 1012.83 1012.74 1012.23 1011.28 1009.97 1008.38 1006.67 1005.02 1003.58 1002.48 1001.79 1001.54 1001.70 1002.18 1002.90 1003.75 1004.62 1005.47 1006.26 1006.97 1007.62 1008.24 1008.84 1009.43 1010.00 1010.54 1011.01 1011.39 1011.65 1011.78 1011.80 1011.73 1011.59 1011.42 1011.25 1011.10
1008.53 1008.81 1009.19 1009.68 1010.25 1010.83 1011.36 1011.73 1011.84 1011.63 1011.07 1010.15 1008.93 1007.51 1006.01 1004.57 1003.34 1002.39 1001.80 1001.57 1001.68 1002.06 1002.65 1003.35 1004.10 1004.84 1005.55 1006.23 1006.89 1007.53 1008.16 1008.79 1009.39 1009.95 1010.44 1010.82 1011.08 1011.22 1011.25 1011.18 1011.05 1010.89 1010.73 1010.58
1008.26 1008.58 1008.96 1009.39 1009.83 1010.24 1010.57 1010.72 1010.65 1010.31 1009.69 1008.81 1007.71 1006.49 1005.24 1004.07 1003.07 1002.32 1001.84 1001.66 1001.74 1002.03 1002.47 1003.03 1003.63 1004.25 1004.87 1005.50 1006.13 1006.78 1007.43 1008.08 1008.70 1009.27 1009.77 1010.16 1010.43 1010.58 1010.61 1010.57 1010.46 1010.32 1010.18 1010.04
1008.16 1008.47 1008.79 1009.11 1009.39 1009.60 1009.69 1009.62 1009.35 1008.88 1008.21 1007.37 1006.42 1005.40 1004.41 1003.52 1002.78 1002.23 1001.90 1001.77 1001.83 1002.04 1002.37 1002.77 1003.23 1003.72 1004.25 1004.81 1005.41 1006.04 1006.70 1007.36 1007.99 1008.57 1009.07 1009.46 1009.74 1009.91 1009.96 1009.95 1009.87 1009.76 1009.63 1009.51
1008.22 1008.47 1008.70 1008.87 1008.97 1008.96 1008.81 1008.51 1008.06 1007.47 1006.75 1005.96 1005.14 1004.34 1003.60 1002.97 1002.48 1002.14 1001.94 1001.88 1001.93 1002.07 1002.29 1002.57 1002.89 1003.28 1003.72 1004.22 1004.78 1005.39 1006.04 1006.70 1007.33 1007.91 1008.40 1008.80 1009.09 1009.27 1009.35 1009.36 1009.31 1009.23 1009.12 1009.00
1008.37 1008.53 1008.63 1008.66 1008.57 1008.34 1007.98 1007.48 1006.87 1006.17 1005.43 1004.69 1003.99 1003.37 1002.86 1002.46 1002.18 1002.02 1001.94 1001.94 1001.99 1002.09 1002.22 1002.40 1002.62 1002.92 1003.29 1003.74 1004.27 1004.87 1005.51 1006.15 1006.78 1007.34 1007.83 1008.22 1008.51 1008.70 1008.80 1008.84 1008.82 1008.75 1008.66 1008.53
1008.52 1008.57 1008.54 1008.42 1008.16 1007.75 1007.22 1006.56 1005.83 1005.07 1004.32 1003.63 1003.05 1002.58 1002.23 1002.02 1001.91 1001.87 1001.88 1001.93 1001.98 1002.04 1002.12 1002.23 1002.39 1002.63 1002.96 1003.38 1003.90 1004.48 1005.11 1005.74 1006.35 1006.89 1007.36 1007.74 1008.02 1008.21 1008.32 1008.37 1008.37 1008.31 1008.22 1008.09
1008.56 1008.48 1008.34 1008.08 1007.69 1007.16 1006.51 1005.77 1004.98 1004.19 1003.46 1002.83 1002.33 1001.97 1001.75 1001.65 1001.65 1001.69 1001.75 1001.82 1001.87 1001.91 1001.95 1002.03 1002.17 1002.39 1002.71 1003.13 1003.64 1004.22 1004.84 1005.45 1006.03 1006.54 1006.98 1007.33 1007.59 1007.77 1007.88 1007.94 1007.94 1007.89 1007.79 1007.65
1008.37 1008.19 1007.94 1007.59 1007.12 1006.53 1005.83 1005.06 1004.26 1003.50 1002.81 1002.24 1001.81 1001.53 1001.38 1001.35 1001.39 1001.47 1001.55 1001.61 1001.65 1001.68 1001.72 1001.79 1001.94 1002.17 1002.51 1002.95 1003.47 1004.05 1004.65 1005.24 1005.78 1006.26 1006.65 1006.95 1007.18 1007.34 1007.44 1007.48 1007.49 1007.44 1007.34 1007.19
1007.92 1007.64 1007.32 1006.91 1006.41 1005.80 1005.12 1004.39 1003.64 1002.94 1002.32 1001.81 1001.44 1001.21 1001.10 1001.09 1001.13 1001.20 1001.26 1001.31 1001.34 1001.37 1001.42 1001.52 1001.70 1001.97 1002.35 1002.81 1003.35 1003.94 1004.52 1005.07 1005.57 1005.98 1006.31 1006.57 1006.75 1006.87 1006.95 1006.98 1006.98 1006.94 1006.85 1006.70
1007.22 1006.87 1006.49 1006.06 1005.56 1004.99 1004.36 1003.71 1003.05 1002.44 1001.91 1001.48 1001.16 1000.96 1000.86 1000.83 1000.85 1000.89 1000.93 1000.95 1000.98 1001.02 1001.10 1001.24 1001.47 1001.80 1002.23 1002.73 1003.29 1003.87 1004.42 1004.93 1005.36 1005.71 1005.97 1006.15 1006.27 1006.35 1006.40 1006.42 1006.42 1006.39 1006.31 1006.18
1006.35 1005.95 1005.54 1005.11 1004.63 1004.12 1003.58 1003.02 1002.48 1001.98 1001.54 1001.18 1000.91 1000.74 1000.64 1000.59 1000.58 1000.58 1000.59 1000.61 1000.64 1000.70 1000.83 1001.03 1001.32 1001.71 1002.19 1002.72 1003.29 1003.85 1004.37 1004.81 1005.17 1005.44 1005.61 1005.72 1005.78 1005.80 1005.82 1005.83 1005.82 1005.80 1005.75 1005.65
1005.45 1005.02 1004.59 1004.16 1003.73 1003.28 1002.83 1002.37 1001.94 1001.54 1001.20 1000.91 1000.70 1000.54 1000.44 1000.38 1000.35 1000.33 1000.33 1000.35 1000.40 1000.51 1000.69 1000.95 1001.31 1001.76 1002.27 1002.83 1003.39 1003.92 1004.38 1004.76 1005.03 1005.20 1005.29 1005.32 1005.31 1005.28 1005.26 1005.25 1005.25 1005.24 1005.22 1005.15
1004.67 1004.21 1003.78 1003.37 1002.96 1002.57 1002.19 1001.83 1001.49 1001.18 1000.92 1000.70 1000.53 1000.41 1000.32 1000.26 1000.22 1000.21 1000.22 1000.26 1000.36 1000.52 1000.76 1001.09 1001.50 1001.99 1002.53 1003.08 1003.62 1004.11 1004.50 1004.79 1004.98 1005.06 1005.06 1005.00 1004.92 1004.85 1004.79 1004.76 1004.75 1004.76 1004.75 1004.73
1004.12 1003.67 1003.24 1002.84 1002.47 1002.11 1001.79 1001.48 1001.21 1000.97 1000.77 1000.61 1000.48 1000.39 1000.32 1000.29 1000.27 1000.28 1000.33 1000.42 1000.57 1000.79 1001.09 1001.48 1001.93 1002.44 1002.98 1003.52 1004.01 1004.43 1004.75 1004.95 1005.04 1005.03 1004.95 1004.82 1004.68 1004.55 1004.46 1004.40 1004.39 1004.39 1004.40 1004.39
1003.90 1003.47 1003.06 1002.67 1002.32 1001.99 1001.69 1001.42 1001.19 1000.99 1000.84 1000.71 1000.62 1000.57 1000.54 1000.54 1000.57 1000.63 1000.73 1000.88 1001.09 1001.36 1001.71 1002.13 1002.60 1003.11 1003.62 1004.11 1004.53 1004.87 1005.10 1005.22 1005.23 1005.14 1004.99 1004.79 1004.60 1004.43 1004.30 1004.21 1004.17 1004.16 1004.16 1004.15
Thickness
5566 5558 5552 5555 5559 5560 5561 5561 5561 5567 5572 5569 5568 5573 5576 5576 5574 5572 5570 5570 5568 5568 5567 5566 5565 5565 5564 5564 5566 5567 5569 5570 5572 5574 5576 5578 5579 5581 5584 5587 5590 5591 5591 5593
5555 5549 5552 5556 5558 5556 5554 5551 5553 5560 5564 5560 5561 5565 5571 5572 5569 5567 5564 5561 5560 5560 5558 5557 5556 5555 5554 5554 5556 5558 5559 5561 5563 5564 5565 5567 5569 5571 5574 5576 5578 5579 5580 5580
5544 5546 5550 5549 5547 5546 5545 5543 5544 5544 5547 5551 5549 5556 5564 5568 5567 5565 5561 5557 5554 5552 5550 5549 5548 5546 5545 5545 5546 5549 5551 5552 5553 5554 5555 5556 5557 5560 5562 5565 5567 5567 5568 5569
5540 5542 5541 5538 5534 5533 5532 5540 5539 5535 5528 5530 5538 5532 5556 5556 5555 5555 5551 5547 5545 5544 5542 5540 5539 5537 5536 5536 5538 5539 5540 5542 5543 5544 5545 5545 5546 5549 5552 5554 5556 5558 5558 5558
5531 5532 5529 5527 5527 5526 5526 5532 5530 5528 5522 5518 5528 5521 5542 5548 5544 5543 5540 5539 5537 5536 5533 5531 5530 5529 5528 5527 5527 5528 5529 5530 5532 5533 5533 5534 5536 5538 5541 5543 5545 5547 5547 5548
5526 5526 5522 5519 5521 5523 5522 5524 5524 5522 5514 5508 5526 5521 5531 5537 5538 5536 5532 5530 5527 5525 5523 5522 5521 5520 5519 5518 5517 5517 5517 5519 5520 5521 5522 5524 5525 5527 5530 5532 5534 5536 5537 5539
5518 5519 5516 5513 5511 5513 5511 5504 5503 5504 5505 5514 5531 5522 5525 5530 5531 5527 5523 5518 5516 5514 5513 5512 5511 5510 5509 5508 5507 5507 5506 5508 5510 5510 5511 5513 5514 5516 5519 5521 5523 5525 5526 5528
5503 5505 5507 5505 5500 5497 5499 5499 5489 5490 5501 5513 5521 5516 5520 5524 5520 5517 5513 5509 5507 5505 5504 5504 5503 5501 5500 5499 5499 5498 5497 5498 5500 5500 5500 5501 5502 5505 5507 5510 5512 5515 5516 5518
5492 5496 5504 5502 5500 5496 5494 5489 5491 5483 5482 5487 5509 5518 5515 5516 5510 5506 5503 5499 5496 5496 5496 5497 5495 5494 5492 5491 5491 5490 5489 5490 5490 5491 5491 5491 5492 5494 5497 5499 5502 5504 5505 5507
5484 5476 5491 5495 5493 5490 5488 5486 5477 5473 5475 5487 5509 5512 5503 5498 5496 5496 5492 5489 5488 5488 5487 5488 5487 5486 5484 5484 5484 5482 5481 5482 5482 5482 5481 5482 5483 5484 5486 5489 5491 5493 5494 5496
5478 5466 5476 5482 5477 5476 5476 5473 5469 5469 5471 5472 5482 5494 5498 5493 5489 5485 5483 5481 5480 5479 5478 5478 5478 5478 5477 5476 5475 5474 5474 5474 5473 5473 5472 5473 5473 5474 5476 5479 5480 5481 5483 5485
5468 5462 5460 5473 5478 5475 5471 5466 5460 5452 5455 5462 5462 5478 5492 5488 5483 5479 5476 5474 5473 5473 5471 5470 5469 5469 5468 5466 5466 5465 5464 5465 5465 5464 5463 5463 5464 5465 5466 5468 5469 5471 5473 5475
5457 5450 5449 5465 5463 5459 5458 5459 5453 5446 5446 5450 5453 5472 5486 5481 5477 5472 5468 5465 5465 5465 5464 5462 5460 5458 5457 5457 5457 5456 5456 5456 5456 5455 5454 5455 5455 5455 5456 5457 5458 5460 5462 5464
5454 5442 5442 5452 5456 5448 5445 5447 5445 5438 5433 5441 5454 5465 5471 5470 5468 5464 5460 5457 5456 5456 5455 5453 5451 5449 5449 5449 5448 5447 5446 5446 5447 5446 5446 5446 5445 5444 5445 5447 5448 5450 5452 5455
5441 5436 5439 5442 5448 5448 5446 5444 5439 5434 5436 5436 5451 5457 5463 5461 5457 5454 5452 5450 5451 5450 5448 5446 5442 5441 5440 5440 5439 5438 5437 5437 5437 5437 5436 5436 5435 5435 5435 5437 5438 5441 5443 5446
5428 5427 5430 5432 5442 5442 5442 5444 5441 5438 5439 5441 5446 5451 5458 5453 5451 5447 5444 5442 5442 5441 5440 5438 5436 5435 5433 5431 5429 5429 5428 5428 5427 5427 5427 5426 5426 5426 5426 5428 5431 5433 5435 5437
5419 5414 5418 5428 5436 5431 5435 5444 5439 5438 5440 5439 5437 5445 5448 5445 5442 5439 5436 5434 5433 5432 5431 5429 5427 5425 5423 5421 5421 5420 5420 5420 5419 5418 5417 5417 5418 5418 5419 5421 5423 5424 5426 5427
5410 5407 5408 5413 5417 5420 5447 5448 5444 5438 5438 5437 5438 5439 5438 5436 5433 5431 5429 5426 5425 5423 5421 5420 5418 5417 5415 5414 5414 5413 5413 5412 5411 5410 5409 5409 5410 5411 5412 5413 5414 5415 5417 5419
5408 5402 5403 5405 5408 5428 5443 5438 5432 5425 5427 5432 5430 5431 5431 5430 5428 5425 5423 5419 5416 5414 5412 5411 5409 5408 5408 5407 5406 5406 5406 5405 5404 5403 5402 5402 5402 5403 5404 5406 5407 5408 5410 5412
5398 5393 5391 5400 5402 5417 5438 5429 5427 5421 5418 5426 5425 5422 5420 5417 5413 5415 5414 5411 5409 5407 5405 5403 5402 5402 5401 5399 5399 5399 5398 5397 5396 5395 5395 5395 5396 5396 5397 5399 5400 5401 5403 5405
5387 5387 5388 5393 5398 5416 5425 5419 5418 5413 5418 5419 5417 5413 5410 5406 5404 5405 5404 5402 5400 5399 5398 5396 5395 5394 5393 5393 5392 5391 5390 5389 5389 5389 5389 5389 5390 5390 5391 5392 5393 5394 5396 5397
5395 5392 5390 5392 5395 5410 5414 5409 5408 5410 5413 5412 5410 5406 5403 5401 5399 5397 5395 5394 5392 5391 5391 5390 5389 5388 5387 5386 5385 5384 5384 5383 5383 5383 5384 5383 5384 5384 5385 5385 5386 5387 5389 5390
5405 5406 5404 5403 5410 5416 5411 5408 5408 5407 5405 5404 5401 5399 5396 5394 5392 5390 5388 5386 5385 5384 5383 5383 5381 5381 5380 5379 5378 5377 5377 5377 5377 5377 5377 5377 5378 5378 5378 5379 5380 5381 5382 5384
5409 5405 5400 5400 5409 5412 5409 5407 5405 5402 5399 5397 5395 5392 5389 5386 5385 5383 5381 5379 5378 5377 5376 5375 5374 5373 5372 5371 5371 5370 5371 5371 5371 5371 5371 5371 5371 5371 5371 5372 5373 5374 5376 5377
5413 5396 5393 5393 5403 5404 5406 5403 5400 5397 5394 5391 5388 5385 5383 5380 5379 5377 5374 5372 5371 5371 5370 5369 5368 5366 5365 5365 5364 5365 5364 5365 5365 5364 5365 5365 5365 5365 5365 5365 5366 5367 5368 5369
5406 5397 5393 5399 5402 5397 5398 5396 5394 5390 5387 5384 5380 5378 5376 5374 5372 5370 5367 5366 5365 5364 5363 5362 5361 5360 5359 5359 5359 5358 5358 5358 5358 5358 5358 5358 5358 5357 5358 5358 5359 5360 5361 5362